Ocala, FL

11:11 PM EDT on July 24, 2017 (GMT -0400)
Ocala Regional-Taylor

Weather History for KOCF - December, 2011

Change the Weather History Date:

Tuesday, December 20, 2011

  Actual Average Record
Temperature  
Mean Temperature 63 °F -  
Max Temperature 78 °F 65 °F 80 °F (2012)
Min Temperature 48 °F 43 °F 23 °F (2000)
Degree Days  
Heating Degree Days 2    
Growing Degree Days 13 (Base 50)    
Moisture  
Dew Point 53 °F    
Average Humidity 75    
Maximum Humidity 93    
Minimum Humidity 44    
Precipitation  
Precipitation 0.00 in - - ()
Sea Level Pressure  
Sea Level Pressure 30.18 in    
Wind  
Wind Speed 2 mph (SE)    
Max Wind Speed 10 mph    
Max Gust Speed 16 mph    
Visibility 10 miles    
Events      
Averages and records for this station are not official NWS values.
T = Trace of Precipitation, MM = Missing Value Source: NWS Daily Summary

Daily Weather History Graph

Daily Weather History Graph

Search for Another Location

Airport or City:

Trip Planner

Search our weather history database for the weather conditions in past years. The results will help you decide how hot, cold, wet, or windy it might be!

Date:

Astronomy

Dec. 20, 2011 Rise Set
Actual Time 7:18 AM EST 5:34 PM EST
Civil Twilight 6:51 AM EST 6:00 PM EST
Nautical Twilight 6:22 AM EST 6:30 PM EST
Astronomical Twilight 5:53 AM EST 6:59 PM EST
Moon 2:48 AM EST (12/20) 2:01 PM EST (12/20)
Length of Visible Light 11h 09m
Length of Day
10h 16m
Waning Crescent, 21% of the Moon is Illuminated
Dec 20
Waning Crescent
Dec 24
New
Jan 1
First Quarter
Jan 9
Full
Jan 16
Last Quarter

Hourly Weather History & Observations

Time (EST) Temp. Dew Point Humidity Pressure Visibility Wind Dir Wind Speed Gust Speed Precip Events Conditions
12:15 AM 57.2 °F 51.8 °F 82% 30.22 in 10.0 mi SE 3.5 mph - N/A   Clear
12:35 AM 57.2 °F 51.8 °F 82% 30.22 in 10.0 mi Calm Calm - N/A   Clear
12:55 AM 57.2 °F 51.8 °F 82% 30.21 in 10.0 mi Calm Calm - N/A   Clear
1:35 AM 51.8 °F 46.4 °F 82% 30.21 in 10.0 mi Calm Calm - N/A   Clear
1:55 AM 53.6 °F 48.2 °F 82% 30.21 in 8.0 mi Calm Calm - N/A   Clear
2:15 AM 51.8 °F 48.2 °F 88% 30.20 in 9.0 mi Calm Calm - N/A   Clear
2:35 AM 51.8 °F 46.4 °F 82% 30.20 in 4.0 mi Calm Calm - N/A   Clear
2:55 AM 50.0 °F 46.4 °F 87% 30.19 in 5.0 mi Calm Calm - N/A   Clear
3:15 AM 50.0 °F 46.4 °F 87% 30.19 in 5.0 mi Calm Calm - N/A   Clear
3:35 AM 48.2 °F 44.6 °F 87% 30.19 in 7.0 mi Calm Calm - N/A   Partly Cloudy
3:55 AM 48.2 °F 46.4 °F 93% 30.20 in 10.0 mi North 3.5 mph - N/A   Mostly Cloudy
4:15 AM 50.0 °F 46.4 °F 87% 30.20 in 10.0 mi Calm Calm - N/A   Overcast
4:35 AM 48.2 °F 46.4 °F 93% 30.20 in 10.0 mi Calm Calm - N/A   Partly Cloudy
5:15 AM 48.2 °F 44.6 °F 87% 30.20 in 9.0 mi Calm Calm - N/A   Scattered Clouds
5:35 AM 48.2 °F 44.6 °F 87% 30.20 in 10.0 mi East 3.5 mph - N/A   Mostly Cloudy
5:55 AM 50.0 °F 46.4 °F 87% 30.19 in 10.0 mi Calm Calm - N/A   Mostly Cloudy
6:35 AM 48.2 °F 46.4 °F 93% 30.20 in 10.0 mi Calm Calm - N/A   Scattered Clouds
7:50 AM 50.0 °F 46.4 °F 87% 30.22 in 10.0 mi Calm Calm - N/A   Scattered Clouds
8:50 AM 57.2 °F 53.6 °F 88% 30.23 in 10.0 mi Calm Calm - N/A   Scattered Clouds
9:50 AM 66.2 °F 55.4 °F 68% 30.23 in 10.0 mi SSE 6.9 mph - N/A   Clear
10:50 AM 71.6 °F 55.4 °F 57% 30.22 in 10.0 mi SSE 8.1 mph 16.1 mph N/A   Partly Cloudy
11:50 AM 73.4 °F 55.4 °F 53% 30.20 in 10.0 mi South 10.4 mph 16.1 mph N/A   Scattered Clouds
12:50 PM 75.2 °F 55.4 °F 50% 30.16 in 10.0 mi South 10.4 mph - N/A   Scattered Clouds
1:50 PM 75.2 °F 55.4 °F 50% 30.13 in 10.0 mi SSE 6.9 mph - N/A   Clear
2:50 PM 78.8 °F 55.4 °F 44% 30.11 in 10.0 mi SE 6.9 mph - N/A   Clear
3:50 PM 77.0 °F 55.4 °F 47% 30.12 in 10.0 mi SE 3.5 mph - N/A   Clear
4:50 PM 73.4 °F 55.4 °F 53% 30.11 in 10.0 mi SE 5.8 mph - N/A   Clear
5:50 PM 69.8 °F 55.4 °F 60% 30.12 in 10.0 mi SSE 4.6 mph - N/A   Clear
6:50 PM 66.2 °F 55.4 °F 68% 30.15 in 10.0 mi Calm Calm - N/A   Overcast
7:55 PM 68.0 °F 55.4 °F 64% 30.15 in 10.0 mi ESE 3.5 mph - N/A   Mostly Cloudy
8:15 PM 68.0 °F 55.4 °F 64% 30.15 in 10.0 mi East 3.5 mph - N/A   Partly Cloudy
8:35 PM 68.0 °F 55.4 °F 64% 30.15 in 10.0 mi ESE 4.6 mph - N/A   Clear
8:55 PM 68.0 °F 57.2 °F 68% 30.16 in 10.0 mi SE 4.6 mph - N/A   Clear
9:15 PM 68.0 °F 59.0 °F 73% 30.16 in 10.0 mi SE 3.5 mph - N/A   Clear
9:35 PM 68.0 °F 59.0 °F 73% 30.17 in 10.0 mi SSE 4.6 mph - N/A   Clear
9:55 PM 66.2 °F 59.0 °F 78% 30.16 in 10.0 mi SSE 4.6 mph - N/A   Clear
10:15 PM 66.2 °F 59.0 °F 78% 30.16 in 10.0 mi SSE 5.8 mph - N/A   Clear
10:35 PM 66.2 °F 59.0 °F 78% 30.16 in 10.0 mi SE 5.8 mph - N/A   Clear
10:55 PM 66.2 °F 59.0 °F 78% 30.15 in 10.0 mi ESE 3.5 mph - N/A   Clear
11:15 PM 66.2 °F 59.0 °F 78% 30.16 in 10.0 mi SE 3.5 mph - N/A   Clear
11:35 PM 66.2 °F 59.0 °F 78% 30.15 in 10.0 mi SE 5.8 mph - N/A   Clear
11:55 PM 66.2 °F 59.0 °F 78% 30.15 in 10.0 mi SE 3.5 mph - N/A   Scattered Clouds